This is the latest recevied weather packets stored in our database for station/object KD4IZ-13. If no packets are shown the sender has not sent any weather packets the latest 1 day(s).
| Time | Temp. | Humidity | Pressure | Rain* | Wind** | Luminosity | Snow |
|---|---|---|---|---|---|---|---|
| 1777994950 | 25° C | 51% | 1012.8 hPa | 0 mm | 2.24 m/s, 259° | 768 W/m² | - |
| 1777994647 | 25° C | 49% | 1013 hPa | 0 mm | 4.02 m/s, 250° | 786 W/m² | - |
| 1777994342 | 24.44° C | 53% | 1012.9 hPa | 0 mm | 3.13 m/s, 243° | 795 W/m² | - |
| 1777994038 | 25° C | 49% | 1012.7 hPa | 0 mm | 3.13 m/s, 260° | 792 W/m² | - |
| 1777993735 | 24.44° C | 49% | 1012.9 hPa | 0 mm | 4.92 m/s, 253° | 813 W/m² | - |
| 1777993432 | 24.44° C | 51% | 1013 hPa | 0 mm | 3.13 m/s, 225° | 796 W/m² | - |
| 1777993126 | 24.44° C | 50% | 1012.8 hPa | 0 mm | 5.81 m/s, 273° | 799 W/m² | - |
| 1777992825 | 24.44° C | 51% | 1012.9 hPa | 0 mm | 2.24 m/s, 273° | 770 W/m² | - |
| 1777992522 | 23.89° C | 53% | 1012.8 hPa | 0 mm | 2.68 m/s, 255° | 767 W/m² | - |
| 1777992221 | 23.89° C | 55% | 1013.1 hPa | 0 mm | 2.24 m/s, 246° | 746 W/m² | - |
| 1777991912 | 23.89° C | 55% | 1013 hPa | 0 mm | 2.24 m/s, 211° | 737 W/m² | - |
| 1777991609 | 23.33° C | 56% | 1013.1 hPa | 0 mm | 1.79 m/s, 211° | 734 W/m² | - |
| 1777991306 | 23.33° C | 54% | 1013 hPa | 0 mm | 3.58 m/s, 264° | 737 W/m² | - |
| 1777991004 | 22.78° C | 55% | 1013.1 hPa | 0 mm | 4.92 m/s, 227° | 692 W/m² | - |
| 1777990701 | 22.78° C | 57% | 1013.2 hPa | 0 mm | 2.68 m/s, 222° | 676 W/m² | - |
| 1777990398 | 22.78° C | 59% | 1013.4 hPa | 0 mm | 1.79 m/s, 276° | 684 W/m² | - |
| 1777990094 | 22.22° C | 60% | 1013.2 hPa | 0 mm | 1.34 m/s, 231° | 660 W/m² | - |
| 1777989791 | 22.22° C | 59% | 1013.1 hPa | 0 mm | 1.79 m/s, 196° | 645 W/m² | - |
| 1777989488 | 21.67° C | 59% | 1013.1 hPa | 0 mm | 3.13 m/s, 223° | 613 W/m² | - |
| 1777989184 | 21.67° C | 60% | 1013 hPa | 0 mm | 2.24 m/s, 205° | 612 W/m² | - |
| 1777988881 | 21.11° C | 62% | 1013.1 hPa | 0 mm | 1.79 m/s, 212° | 594 W/m² | - |
| 1777988578 | 21.11° C | 62% | 1013.2 hPa | 0 mm | 3.58 m/s, 263° | 563 W/m² | - |
| 1777988274 | 20.56° C | 61% | 1013.4 hPa | 0 mm | 2.68 m/s, 258° | 548 W/m² | - |
| 1777987971 | 20.56° C | 64% | 1013.6 hPa | 0 mm | 2.24 m/s, 249° | 526 W/m² | - |
| 1777987667 | 20° C | 62% | 1013.4 hPa | 0 mm | 2.24 m/s, 210° | 499 W/m² | - |
* Rain latest hour (hover to see other rain measurements)
** Current wind speed in m/s (hover to see current wind gust speed)